Hourly Data Report for May 19, 2004

TORONTO CITY
ONTARIO

43°40'00.000" N
79°24'00.000" W
112.50 m
6158355
71508
XTO

Download Data

Hourly Data (May 2004)
Hourly Data Report for May 19, 2004
TIME
LST
Temp Definition
°C
Dew Point Definition
°C
Rel Hum Definition
%
Precip. Amount Definition
mm

Wind Dir Definition
10's deg

Wind Spd Definition
km/h
Visibility Definition
km
Stn Press Definition
kPa
Hmdx Definition


Wind Chill Definition


Weather Definition


00:00 12.2 8.9 80   LegendMM LegendMM LegendMM 100.73     LegendNANA
01:00 11.9 8.7 81   LegendMM LegendMM LegendMM 100.75     LegendNANA
02:00 11.7 8.7 82   LegendMM LegendMM LegendMM 100.73     LegendNANA
03:00 11.1 8.7 85   LegendMM LegendMM LegendMM 100.77     LegendNANA
04:00 10.6 8.6 87   LegendMM LegendMM LegendMM 100.81     LegendNANA
05:00 9.7 8.2 90   LegendMM LegendMM LegendMM 100.88     LegendNANA
06:00 10.4 8.8 90   LegendMM LegendMM LegendMM 100.94     LegendNANA
07:00 12.0 9.1 82   LegendMM LegendMM LegendMM 100.99     LegendNANA
08:00 14.7 9.3 70   LegendMM LegendMM LegendMM 101.04     LegendNANA
09:00 16.1 9.0 63   LegendMM LegendMM LegendMM 101.07     LegendNANA
10:00 16.9 7.7 55   LegendMM LegendMM LegendMM 101.07     LegendNANA
11:00 17.2 5.5 46   LegendMM LegendMM LegendMM 101.07     LegendNANA
12:00 17.6 6.8 49   LegendMM LegendMM LegendMM 101.05     LegendNANA
13:00 18.6 7.4 48   LegendMM LegendMM LegendMM 101.00     LegendNANA
14:00 19.0 6.7 45   LegendMM LegendMM LegendMM 100.97     LegendNANA
15:00 18.2 3.7 38   LegendMM LegendMM LegendMM 100.93     LegendNANA
16:00 17.9 3.7 39   LegendMM LegendMM LegendMM 100.88     LegendNANA
17:00 17.1 4.1 42   LegendMM LegendMM LegendMM 100.86     LegendNANA
18:00 16.7 3.3 41   LegendMM LegendMM LegendMM 100.84     LegendNANA
19:00 16.0 2.7 41   LegendMM LegendMM LegendMM 100.83     LegendNANA
20:00 15.3 1.8 40   LegendMM LegendMM LegendMM 100.81     LegendNANA
21:00 15.0 -0.3 35   LegendMM LegendMM LegendMM 100.84     LegendNANA
22:00 14.9 0.5 37   LegendMM LegendMM LegendMM 100.84     LegendNANA
23:00 14.2 1.8 43   LegendMM LegendMM LegendMM 100.80     LegendNANA

Notes on Data Quality.

Legend

  • E = Estimated
  • M = Missing
  • NA = Not Available*
  • [empty] = Indicates an unobserved value
Date modified: